• Em Portugal
  • Lista de países
  • Para 7 dias
  • Temperatura da água
  • Mapas de satélite
  • Mapa do tempo
  • Widgets de tempo
  • user-avatar
    Iniciar Sessão

    Previsão horária em Volodarskoe

    Hoje, 16 Outubro, Terça-feira

    Tempo Temperatura Precipitação Vento Pressão Humidade
    00:00 +15°C° 0 mm 4 m/s 760 mmHg 62%
    01:00 +15°C° 0 mm 4 m/s 760 mmHg 64%
    02:00 +16°C° 0 mm 3 m/s 759 mmHg 65%
    03:00 +16°C° 0 mm 3 m/s 759 mmHg 67%
    04:00 +14°C° 0 mm 4 m/s 759 mmHg 69%
    05:00 +14°C° 0 mm 4 m/s 760 mmHg 70%
    06:00 +15°C° 0 mm 4 m/s 760 mmHg 68%
    07:00 +17°C° 0 mm 4 m/s 760 mmHg 65%
    08:00 +17°C° 0 mm 5 m/s 760 mmHg 63%
    09:00 +19°C° 0 mm 5 m/s 760 mmHg 58%
    10:00 +21°C° 0 mm 5 m/s 760 mmHg 53%
    11:00 +22°C° 0 mm 5 m/s 760 mmHg 49%
    12:00 +23°C° 0 mm 5 m/s 760 mmHg 47%
    13:00 +23°C° 0 mm 5 m/s 759 mmHg 45%
    14:00 +25°C° 0 mm 5 m/s 759 mmHg 43%
    15:00 +22°C° 0 mm 5 m/s 759 mmHg 47%
    16:00 +21°C° 0 mm 4 m/s 759 mmHg 51%
    17:00 +20°C° 0 mm 4 m/s 759 mmHg 55%
    18:00 +19°C° 0 mm 4 m/s 759 mmHg 57%
    19:00 +19°C° 0 mm 4 m/s 759 mmHg 59%
    20:00 +18°C° 0 mm 4 m/s 759 mmHg 62%
    21:00 +18°C° 0 mm 4 m/s 759 mmHg 64%
    22:00 +17°C° 0 mm 4 m/s 759 mmHg 66%
    23:00 +16°C° 0 mm 5 m/s 759 mmHg 68%

    Amanhã, 17 Outubro, Quarta-feira

    Tempo Temperatura Precipitação Vento Pressão Humidade
    00:00 +15°C° 0 mm 5 m/s 759 mmHg 71%
    01:00 +15°C° 0 mm 5 m/s 759 mmHg 73%
    02:00 +14°C° 0 mm 5 m/s 759 mmHg 75%
    03:00 +14°C° 0 mm 5 m/s 758 mmHg 77%
    04:00 +14°C° 0 mm 5 m/s 758 mmHg 79%
    05:00 +13°C° 0 mm 5 m/s 758 mmHg 80%
    06:00 +14°C° 0 mm 5 m/s 758 mmHg 76%
    07:00 +15°C° 0 mm 6 m/s 758 mmHg 71%
    08:00 +16°C° 0 mm 6 m/s 758 mmHg 67%
    09:00 +17°C° 0 mm 6 m/s 758 mmHg 60%
    10:00 +20°C° 0 mm 6 m/s 758 mmHg 54%
    11:00 +21°C° 0 mm 6 m/s 758 mmHg 48%
    12:00 +22°C° 0 mm 6 m/s 758 mmHg 45%
    13:00 +22°C° 0 mm 6 m/s 758 mmHg 42%
    14:00 +23°C° 0 mm 6 m/s 757 mmHg 40%
    15:00 +22°C° 0 mm 5 m/s 757 mmHg 43%
    16:00 +20°C° 0 mm 5 m/s 757 mmHg 45%
    17:00 +19°C° 0 mm 4 m/s 757 mmHg 48%
    18:00 +18°C° 0 mm 4 m/s 757 mmHg 50%
    19:00 +18°C° 0 mm 4 m/s 757 mmHg 52%
    20:00 +17°C° 0 mm 4 m/s 757 mmHg 54%
    21:00 +17°C° 0 mm 4 m/s 757 mmHg 55%
    22:00 +15°C° 0 mm 4 m/s 757 mmHg 57%
    23:00 +15°C° 0 mm 4 m/s 757 mmHg 59%

    Depois de amanhã, 18 Outubro, Quinta-feira

    Tempo Temperatura Precipitação Vento Pressão Humidade
    00:00 +14°C° 0 mm 4 m/s 757 mmHg 60%
    01:00 +14°C° 0 mm 4 m/s 757 mmHg 61%
    02:00 +14°C° 0 mm 4 m/s 757 mmHg 63%
    03:00 +13°C° 0 mm 5 m/s 756 mmHg 64%
    04:00 +13°C° 0 mm 5 m/s 756 mmHg 64%
    05:00 +13°C° 0 mm 5 m/s 756 mmHg 65%
    06:00 +14°C° 0 mm 5 m/s 756 mmHg 62%
    07:00 +15°C° 0 mm 6 m/s 756 mmHg 58%
    08:00 +16°C° 0 mm 6 m/s 757 mmHg 55%
    09:00 +17°C° 0 mm 6 m/s 756 mmHg 50%
    10:00 +20°C° 0 mm 6 m/s 756 mmHg 45%
    11:00 +21°C° 0 mm 7 m/s 756 mmHg 41%
    12:00 +22°C° 0 mm 6 m/s 756 mmHg 39%
    13:00 +22°C° 0 mm 6 m/s 756 mmHg 37%
    14:00 +23°C° 0 mm 6 m/s 755 mmHg 35%
    15:00 +22°C° 0 mm 6 m/s 755 mmHg 38%
    16:00 +20°C° 0 mm 5 m/s 755 mmHg 40%
    17:00 +19°C° 0 mm 5 m/s 755 mmHg 43%
    18:00 +19°C° 0 mm 5 m/s 755 mmHg 44%
    19:00 +17°C° 0 mm 5 m/s 755 mmHg 46%
    20:00 +17°C° 0 mm 5 m/s 755 mmHg 47%
    21:00 +16°C° 0 mm 5 m/s 755 mmHg 49%
    22:00 +16°C° 0 mm 5 m/s 755 mmHg 51%
    23:00 +15°C° 0 mm 5 m/s 755 mmHg 52%

    19 Outubro, Sexta-feira

    Tempo Temperatura Precipitação Vento Pressão Humidade
    00:00 +15°C° 0 mm 5 m/s 755 mmHg 54%
    01:00 +14°C° 0 mm 5 m/s 755 mmHg 55%
    02:00 +14°C° 0 mm 5 m/s 755 mmHg 57%
    03:00 +14°C° 0 mm 5 m/s 754 mmHg 58%
    04:00 +13°C° 0 mm 6 m/s 754 mmHg 59%
    05:00 +13°C° 0 mm 6 m/s 754 mmHg 61%
    06:00 +14°C° 0 mm 6 m/s 754 mmHg 59%
    07:00 +14°C° 0 mm 7 m/s 754 mmHg 58%
    08:00 +15°C° 0 mm 7 m/s 754 mmHg 57%
    09:00 +16°C° 0 mm 7 m/s 754 mmHg 54%
    10:00 +18°C° 0 mm 7 m/s 754 mmHg 50%
    11:00 +20°C° 0 mm 7 m/s 753 mmHg 47%
    12:00 +20°C° 0 mm 6 m/s 753 mmHg 46%
    13:00 +21°C° 0 mm 6 m/s 753 mmHg 44%
    14:00 +21°C° 0 mm 6 m/s 752 mmHg 42%
    15:00 +20°C° 0 mm 5 m/s 752 mmHg 45%
    16:00 +19°C° 0 mm 4 m/s 752 mmHg 48%
    17:00 +18°C° 0 mm 4 m/s 752 mmHg 51%
    18:00 +18°C° 0 mm 4 m/s 752 mmHg 54%
    19:00 +17°C° 0 mm 4 m/s 752 mmHg 57%
    20:00 +17°C° 0 mm 4 m/s 752 mmHg 59%
    21:00 +15°C° 0 mm 4 m/s 751 mmHg 63%
    22:00 +15°C° 0 mm 4 m/s 751 mmHg 67%
    23:00 +14°C° 0 mm 3 m/s 751 mmHg 71%

    20 Outubro, Sábado

    Tempo Temperatura Precipitação Vento Pressão Humidade
    00:00 +14°C° 0 mm 3 m/s 751 mmHg 73%
    01:00 +14°C° 0 mm 3 m/s 751 mmHg 75%
    02:00 +15°C° 0 mm 2 m/s 751 mmHg 77%
    03:00 +14°C° 0.1 mm 2 m/s 751 mmHg 80%
    04:00 +14°C° 0.1 mm 2 m/s 750 mmHg 82%
    05:00 +13°C° 0.1 mm 2 m/s 750 mmHg 85%
    06:00 +14°C° 0 mm 2 m/s 750 mmHg 82%
    07:00 +15°C° 0 mm 2 m/s 750 mmHg 79%
    08:00 +16°C° 0 mm 2 m/s 750 mmHg 75%
    09:00 +17°C° 0 mm 2 m/s 750 mmHg 68%
    10:00 +19°C° 0 mm 3 m/s 750 mmHg 61%
    11:00 +20°C° 0 mm 3 m/s 750 mmHg 54%
    12:00 +21°C° 0 mm 3 m/s 750 mmHg 51%
    13:00 +21°C° 0 mm 3 m/s 750 mmHg 48%
    14:00 +22°C° 0 mm 4 m/s 750 mmHg 45%
    15:00 +21°C° 0 mm 3 m/s 750 mmHg 49%
    16:00 +19°C° 0 mm 3 m/s 750 mmHg 53%
    17:00 +18°C° 0 mm 3 m/s 750 mmHg 58%
    18:00 +18°C° 0 mm 3 m/s 750 mmHg 60%
    19:00 +17°C° 0 mm 3 m/s 750 mmHg 62%
    20:00 +16°C° 0 mm 3 m/s 750 mmHg 64%
    21:00 +16°C° 0 mm 2 m/s 750 mmHg 65%
    22:00 +16°C° 0 mm 2 m/s 749 mmHg 66%
    23:00 +16°C° 0 mm 2 m/s 749 mmHg 67%

    21 Outubro, Domingo

    Tempo Temperatura Precipitação Vento Pressão Humidade
    00:00 +15°C° 0 mm 2 m/s 749 mmHg 67%
    01:00 +15°C° 0 mm 2 m/s 749 mmHg 68%
    02:00 +15°C° 0 mm 2 m/s 749 mmHg 69%
    03:00 +14°C° 0 mm 2 m/s 749 mmHg 69%
    04:00 +14°C° 0 mm 2 m/s 749 mmHg 70%
    05:00 +14°C° 0 mm 1 m/s 749 mmHg 70%
    06:00 +15°C° 0 mm 1 m/s 749 mmHg 67%
    07:00 +16°C° 0 mm 1 m/s 750 mmHg 63%
    08:00 +16°C° 0 mm 1 m/s 750 mmHg 60%
    09:00 +18°C° 0 mm 2 m/s 750 mmHg 55%
    10:00 +19°C° 0 mm 2 m/s 750 mmHg 51%
    11:00 +20°C° 0 mm 3 m/s 750 mmHg 46%
    12:00 +20°C° 0 mm 3 m/s 750 mmHg 46%
    13:00 +21°C° 0 mm 3 m/s 749 mmHg 45%
    14:00 +21°C° 0 mm 4 m/s 749 mmHg 44%
    15:00 +20°C° 0 mm 4 m/s 749 mmHg 47%
    16:00 +19°C° 0 mm 4 m/s 749 mmHg 50%
    17:00 +18°C° 0 mm 3 m/s 750 mmHg 54%
    18:00 +17°C° 0 mm 3 m/s 750 mmHg 56%
    19:00 +17°C° 0 mm 3 m/s 750 mmHg 57%
    20:00 +16°C° 0 mm 3 m/s 750 mmHg 59%
    21:00 +16°C° 0 mm 2 m/s 750 mmHg 61%
    22:00 +15°C° 0 mm 2 m/s 750 mmHg 62%
    23:00 +15°C° 0 mm 2 m/s 750 mmHg 63%
    Mostrar mais